Stations météo

Publicité
Vichy, France (7374): Température de l'air & dewpoint: 21.06.2019 12:00:00 - 27.06.2019 12:00:00 (CEST)Vichy, France (7374): Température de l'air 5cm: 21.06.2019 12:00:00 - 27.06.2019 12:00:00 (CEST)Vichy, France (7374): Vitesse du vent & gusts: 21.06.2019 12:00:00 - 27.06.2019 12:00:00 (CEST)Vichy, France (7374): Direction du vent: 21.06.2019 12:00:00 - 27.06.2019 12:00:00 (CEST)Vichy, France (7374): reduced air pressure: 21.06.2019 12:00:00 - 27.06.2019 12:00:00 (CEST)Vichy, France (7374): visibility: 21.06.2019 12:00:00 - 27.06.2019 12:00:00 (CEST)Vichy, France (7374): Ensoleillement: 21.06.2019 12:00:00 - 27.06.2019 12:00:00 (CEST)Vichy, France (7374): Quantités de précipitations: 21.06.2019 12:00:00 - 27.06.2019 12:00:00 (CEST)
Date & Time tt [°C] td [°C] tt 5cm [°C] ff [km/h] ff [knt] fx [km/h] fx [knt] dd ppp [hPa] vv [km] sd [min] rr [mm]
27.06.2019 12:00:00 34,2 13,6 44,3 6 3 10 5 ESE 1019,3 19 60 0,0
27.06.2019 11:00:00 31,4 15,4 41,2 4 2 9 5 NE 1019,6 19 60 0,0
27.06.2019 10:00:00 29,6 12,9 33,6 3 1 7 4 S 1020,0 16 60 0,0
27.06.2019 09:00:00 25,8 15,2 23,8 3 2 6 3 S 1020,5 19 60 0,0
27.06.2019 08:00:00 21,1 16,7 16,2 0 0 3 2 N 1020,8 19 60 0,0
27.06.2019 07:00:00 16,8 15,8 12,8 2 1 4 2 S 1020,9 19 37 0,0
27.06.2019 06:00:00 16,2 14,9 12,6 2 1 4 2 WNW 1020,7 20 0 0,0
27.06.2019 05:00:00 17,9 15,7 13,5 3 2 10 5 SW 1020,1 20 0 0,0
27.06.2019 04:00:00 19,2 15,9 15,2 4 2 12 6 SW 1019,7 20 0 0,0
27.06.2019 03:00:00 24,2 16,7 16,4 8 4 14 7 SSW 1019,0 20 0 0,0
27.06.2019 02:00:00 23,4 17,8 17,5 5 3 13 7 SSW 1019,0 20 0 0,0
27.06.2019 01:00:00 26,0 18,4 18,1 8 4 14 8 SSW 1018,8 20 0 0,0
27.06.2019 00:00:00 22,7 18,9 18,8 0 0 4 2 N 1019,1 20 0 0,0
26.06.2019 23:00:00 24,6 19,2 20,2 0 0 7 4 N 1018,7 20 0 0,0
26.06.2019 22:00:00 29,4 17,9 23,2 5 3 14 8 ESE 1017,6 20 15 0,0
26.06.2019 21:00:00 35,4 16,2 32,4 8 4 23 13 SE 1016,7 20 60 0,0
26.06.2019 20:00:00 37,0 17,1 36,2 11 6 26 14 E 1016,2 20 60 0,0
26.06.2019 19:00:00 38,1 15,8 39,5 15 8 25 14 ENE 1015,9 20 60 0,0
26.06.2019 18:00:00 39,6 13,2 43,5 14 8 23 13 ESE 1016,0 20 60 0,0
26.06.2019 17:00:00 38,5 14,3 46,2 12 7 22 12 NE 1016,7 19 60 0,0
26.06.2019 16:00:00 38,4 12,9 46,4 14 8 23 12 ENE 1017,1 20 60 0,0
26.06.2019 15:00:00 37,9 10,3 47,3 7 4 16 9 NE 1017,7 20 60 0,0
26.06.2019 14:00:00 36,8 11,6 46,1 4 2 13 7 S 1018,1 20 60 0,0
26.06.2019 13:00:00 35,4 11,1 43,5 7 4 19 11 SE 1018,6 20 60 0,0
26.06.2019 12:00:00 34,1 11,9 39,8 14 8 23 12 SSE 1018,8 20 60 0,0
26.06.2019 11:00:00 31,8 13,1 35,8 12 7 20 11 SSE 1019,1 20 60 0,0
26.06.2019 10:00:00 28,3 13,8 30,7 10 5 16 9 SSE 1019,2 20 60 0,0
26.06.2019 09:00:00 25,3 14,7 23,4 12 7 17 9 SSE 1019,2 20 60 0,0
26.06.2019 08:00:00 21,1 16,1 15,9 4 2 8 5 S 1019,3 20 60 0,0
26.06.2019 07:00:00 16,8 15,0 12,9 2 1 8 5 SSW 1019,5 20 38 0,0
26.06.2019 06:00:00 15,3 14,5 11,9 0 0 9 5 N 1019,4 20 0 0,0
26.06.2019 05:00:00 16,0 15,0 12,5 5 3 8 5 SSE 1019,2 20 0 0,0
26.06.2019 04:00:00 15,6 14,5 12,9 3 1 5 3 SSW 1019,2 20 0 0,0
26.06.2019 03:00:00 16,5 15,4 13,7 0 0 2 1 N 1019,4 20 0 0,0
26.06.2019 02:00:00 17,6 15,9 14,6 0 0 3 1 N 1019,5 20 0 0,0
26.06.2019 01:00:00 18,9 16,3 16,2 2 1 9 5 W 1019,5 20 0 0,0
26.06.2019 00:00:00 20,7 16,7 17,4 0 0 5 3 N 1019,4 20 0 0,0
25.06.2019 23:00:00 22,9 17,1 18,1 0 0 10 5 N 1018,8 20 0 0,0
25.06.2019 22:00:00 24,7 17,4 20,1 0 0 12 7 N 1017,9 18 15 0,0
25.06.2019 21:00:00 30,3 15,2 25,1 5 3 12 7 N 1016,9 20 26 0,0
25.06.2019 20:00:00 35,0 11,4 33,0 5 3 18 10 SSE 1016,2 19 60 0,0
25.06.2019 19:00:00 35,8 12,1 36,8 10 6 21 11 SSE 1015,8 20 60 0,0
25.06.2019 18:00:00 35,6 11,3 37,0 7 4 22 12 S 1015,8 20 45 0,0
25.06.2019 17:00:00 35,5 10,5 41,8 11 6 27 14 S 1016,1 20 60 0,0
25.06.2019 16:00:00 34,7 9,9 41,7 8 5 19 11 SE 1016,2 20 60 0,0
25.06.2019 15:00:00 33,6 10,2 38,2 8 4 26 14 SE 1016,3 20 51 0,0
25.06.2019 14:00:00 33,3 10,0 38,0 10 6 25 14 SSE 1016,5 20 57 0,0
25.06.2019 13:00:00 31,7 9,3 36,3 15 8 26 14 SSE 1016,9 20 55 0,0
25.06.2019 12:00:00 30,4 9,8 33,9 11 6 26 14 SSE 1017,0 20 50 0,0
25.06.2019 11:00:00 29,3 11,4 35,7 11 6 26 14 S 1017,0 20 60 0,0
25.06.2019 10:00:00 27,7 12,1 29,7 14 7 23 13 S 1017,1 20 60 0,0
25.06.2019 09:00:00 24,9 12,5 23,8 7 4 10 5 SSE 1017,1 20 60 0,0
25.06.2019 08:00:00 20,8 14,2 15,6 2 1 9 5 S 1017,2 18 35 0,0
25.06.2019 07:00:00 18,0 12,9 14,5 6 3 14 7 SSW 1016,8 20 0 0,0
25.06.2019 06:00:00 19,3 13,0 14,9 5 3 15 8 S 1016,1 20 0 0,0
25.06.2019 05:00:00 20,0 13,2 14,8 9 5 16 8 S 1015,5 20 0 0,0
25.06.2019 04:00:00 20,4 13,4 15,7 6 3 11 6 SSW 1015,3 20 0 0,0
25.06.2019 03:00:00 21,4 13,1 15,4 8 4 19 10 S 1015,1 20 0 0,0
25.06.2019 02:00:00 20,4 13,4 15,4 4 2 9 5 SSW 1015,1 20 0 0,0
25.06.2019 01:00:00 23,4 12,4 17,2 4 2 16 9 SSW 1014,8 20 0 0,0
25.06.2019 00:00:00 22,0 14,9 17,1 4 2 21 12 E 1014,8 20 0 0,0
24.06.2019 23:00:00 23,3 15,1 18,1 2 1 12 7 SE 1014,6 20 0 0,0
24.06.2019 22:00:00 26,9 14,6 21,7 6 3 19 10 S 1013,7 20 15 0,0
24.06.2019 21:00:00 30,3 13,1 27,7 13 7 26 14 S 1012,8 20 60 0,0
24.06.2019 20:00:00 32,1 15,1 31,3 12 7 21 11 SSE 1012,3 20 57 0,0
24.06.2019 19:00:00 32,3 15,8 31,7 8 4 17 9 E 1012,0 20 24 0,0
24.06.2019 18:00:00 32,9 15,0 33,9 10 5 19 10 SE 1012,1 20 14 0,0
24.06.2019 17:00:00 33,2 15,2 35,1 8 5 16 9 SSE 1012,2 20 30 0,0
24.06.2019 16:00:00 32,6 14,7 35,2 10 5 21 11 ENE 1012,1 20 13 0,0
24.06.2019 15:00:00 32,3 14,0 36,2 8 4 17 9 NE 1012,5 20 16 0,0
24.06.2019 14:00:00 31,6 13,4 38,3 8 4 21 11 N 1013,1 19 54 0,0
24.06.2019 13:00:00 31,6 11,9 40,2 5 3 13 7 NNE 1013,6 18 60 0,0
24.06.2019 12:00:00 29,8 14,0 38,8 5 3 13 7 SE 1014,1 19 60 0,0
24.06.2019 11:00:00 27,5 15,2 35,1 7 4 12 6 SSE 1014,7 20 60 0,0
24.06.2019 10:00:00 24,6 15,8 29,3 7 4 13 7 SSE 1015,2 20 60 0,0
24.06.2019 09:00:00 21,9 15,3 21,2 9 5 15 8 S 1015,4 20 60 0,0
24.06.2019 08:00:00 18,9 15,2 14,4 5 3 10 5 SSE 1015,5 20 60 0,0
24.06.2019 07:00:00 14,6 13,8 11,2 4 2 10 5 S 1016,1 20 35 0,0
24.06.2019 06:00:00 12,9 12,4 10,8 0 0 3 2 N 1016,1 19 0 0,0
24.06.2019 05:00:00 14,0 13,4 11,7 0 0 10 6 N 1015,9 20 0 0,0
24.06.2019 04:00:00 15,3 14,3 12,3 6 3 11 6 S 1016,0 20 0 0,0
24.06.2019 03:00:00 15,0 14,0 12,4 3 2 9 5 SSW 1016,4 20 0 0,0
24.06.2019 02:00:00 15,5 14,7 13,0 0 0 4 2 N 1016,4 20 0 0,0
24.06.2019 01:00:00 16,4 15,1 13,5 0 0 2 1 N 1015,9 20 0 0,0
24.06.2019 00:00:00 17,8 16,1 15,1 0 0 3 1 N 1015,4 20 0 0,0
23.06.2019 23:00:00 19,5 17,1 17,4 0 0 4 2 N 1015,1 20 0 0,0
23.06.2019 22:00:00 21,8 16,5 19,1 2 1 6 3 W 1014,1 20 0 0,0
23.06.2019 21:00:00 26,3 17,1 23,0 0 0 5 3 N 1013,2 10 29 0,0
23.06.2019 20:00:00 30,5 11,9 29,2 3 1 11 6 SSW 1012,6 20 56 0,0
23.06.2019 19:00:00 30,9 10,3 32,6 4 2 13 7 SE 1012,2 20 60 0,0
23.06.2019 18:00:00 30,5 9,9 31,1 6 4 16 8 S 1012,5 20 30 0,0
23.06.2019 17:00:00 29,4 12,8 30,7 4 2 9 5 S 1012,5 20 0 0,0
23.06.2019 16:00:00 30,3 9,2 34,6 3 2 13 7 S 1012,5 20 46 0,0
23.06.2019 15:00:00 29,6 11,6 37,1 5 3 14 8 E 1012,6 20 60 0,0
23.06.2019 14:00:00 27,9 14,9 36,2 6 3 14 7 NE 1013,0 20 60 0,0
23.06.2019 13:00:00 26,4 16,0 34,7 8 4 13 7 ENE 1013,4 19 55 0,0
23.06.2019 12:00:00 24,7 15,3 34,0 3 2 10 5 NE 1013,9 20 60 0,0
23.06.2019 11:00:00 23,4 14,1 34,1 5 3 13 7 SSE 1014,3 20 60 0,0
23.06.2019 10:00:00 21,8 15,2 28,0 4 2 6 4 E 1014,7 20 60 0,0
23.06.2019 09:00:00 19,3 14,5 19,3 2 1 5 3 NNE 1014,9 20 60 0,0
23.06.2019 08:00:00 15,5 13,3 12,7 0 0 4 2 N 1015,4 20 60 0,0
23.06.2019 07:00:00 12,3 12,1 8,6 2 1 4 2 WSW 1015,9 9 39 0,2
23.06.2019 06:00:00 10,4 10,2 8,2 0 0 3 2 N 1016,3 10 0 0,0
23.06.2019 05:00:00 10,6 10,4 8,5 2 1 3 2 W 1016,2 4,6 0 0,0
23.06.2019 04:00:00 11,4 11,2 8,9 0 0 3 2 N 1016,3 8 0 0,0
23.06.2019 03:00:00 11,8 11,5 9,0 0 0 8 4 N 1016,4 8 0 0,0
23.06.2019 02:00:00 11,9 11,6 9,9 0 0 4 2 N 1016,6 11 0 0,0
23.06.2019 01:00:00 12,9 12,3 10,9 0 0 3 2 N 1017,0 17 0 0,0
23.06.2019 00:00:00 14,2 13,1 11,6 2 1 5 3 N 1017,0 20 0 0,0
22.06.2019 23:00:00 15,3 13,7 12,8 4 2 7 4 NNW 1017,0 20 0 0,0
22.06.2019 22:00:00 17,8 13,9 14,4 3 2 10 5 NNE 1016,3 19 13 0,0
22.06.2019 21:00:00 20,4 14,1 18,6 8 4 18 10 NE 1015,6 20 30 0,0
22.06.2019 20:00:00 22,3 13,9 23,1 12 6 19 11 N 1015,3 20 43 0,0
22.06.2019 19:00:00 23,2 14,7 24,9 11 6 20 11 ENE 1015,1 20 55 0,0
22.06.2019 18:00:00 23,3 15,1 25,3 11 6 24 13 NNE 1015,3 20 52 0,0
22.06.2019 17:00:00 22,2 14,1 29,1 10 5 23 12 NNE 1016,1 20 56 0,0
22.06.2019 16:00:00 22,7 14,8 24,4 9 5 16 8 NE 1016,5 20 8 0,0
22.06.2019 15:00:00 21,0 14,4 24,9 7 4 20 11 NNW 1017,2 20 4 0,0
22.06.2019 14:00:00 20,6 14,0 24,6 8 4 16 9 N 1017,5 20 2 0,0
22.06.2019 13:00:00 20,9 13,8 27,1 5 3 12 6 SW 1017,5 20 36 0,0
22.06.2019 12:00:00 20,0 14,1 24,8 5 3 13 7 SSW 1017,7 19 34 0,0
22.06.2019 11:00:00 18,0 13,5 22,5 5 3 11 6 S 1017,9 20 37 0,0
22.06.2019 10:00:00 16,6 13,1 16,8 0 0 7 4 N 1017,8 20 29 0,0
22.06.2019 09:00:00 14,6 12,6 15,3 5 3 9 5 N 1018,2 20 0 0,0
22.06.2019 08:00:00 14,0 12,7 13,9 3 2 7 4 NW 1018,6 20 0 0,0
22.06.2019 07:00:00 13,3 12,7 13,3 5 3 7 4 NNE 1018,5 20 0 0,0
22.06.2019 06:00:00 13,2 12,9 13,4 4 2 7 4 N 1018,3 20 0 0,0
22.06.2019 05:00:00 13,3 13,1 12,6 0 0 4 2 N 1018,4 20 0 0,0
22.06.2019 04:00:00 12,8 12,6 11,5 0 0 4 2 N 1018,4 14 0 0,0
22.06.2019 03:00:00 13,3 13,0 11,7 0 0 6 3 N 1018,5 4,0 0 0,0
22.06.2019 02:00:00 13,9 13,6 12,8 3 1 5 3 W 1018,7 8 0 0,0
22.06.2019 01:00:00 14,0 13,5 12,7 0 0 5 3 N 1018,7 8 0 0,0
22.06.2019 00:00:00 15,1 14,1 13,5 0 0 9 5 N 1018,8 20 0 0,0
21.06.2019 23:00:00 15,7 14,6 14,6 7 4 13 7 N 1018,4 20 0 2,4
21.06.2019 22:00:00 16,8 15,3 15,9 5 3 14 7 N 1017,9 11 0 1,6
21.06.2019 21:00:00 18,0 14,9 17,1 8 4 16 8 WNW 1017,3 20 0 0,2
21.06.2019 20:00:00 19,0 15,5 18,0 4 2 7 4 NW 1016,8 20 0 0,0
21.06.2019 19:00:00 19,0 14,9 18,3 5 3 16 9 N 1016,6 20 0 0,2
21.06.2019 18:00:00 20,6 14,0 21,8 12 7 20 11 NNE 1016,6 20 0 0,0
21.06.2019 17:00:00 20,6 14,7 22,2 10 5 18 10 N 1016,8 20 0 0,0
21.06.2019 16:00:00 20,5 14,2 24,5 11 6 20 11 N 1017,1 20 0 0,0
21.06.2019 15:00:00 20,1 14,5 20,8 13 7 18 10 NNE 1017,3 20 0 0,0
21.06.2019 14:00:00 19,2 14,0 20,2 8 4 17 9 N 1017,6 20 0 0,0
21.06.2019 13:00:00 19,1 14,8 21,0 8 4 17 9 NNW 1017,7 20 0 0,0
21.06.2019 12:00:00 19,1 15,2 20,0 8 4 18 10 N 1017,6 20 0 0,0

tt = Température de l'air
td = dewpoint
tt 5cm = Température de l'air 5cm
ff = Vitesse du vent
fx = gusts
dd = Direction du vent
ppp = reduced air pressure
vv = visibility
sd = Ensoleillement
rr = Quantités de précipitations

stations d'obs. à proximité